Location: Amsterdam
(30.7274°N, 84.4357°W)
Time: 20:47:08
(UTC+00:00)

Tiros 1 despin weight - Pass Details

Date: 20 February 2026
Orbit: 556 x 593 km, 48.2° (Epoch: 3 March)

Event Time Altitude Azimuth Distance (km) Brightness Sun altitude
Rises 20:15:32 0° 274° (W) 2,745 ? 36.0°
Reaches altitude 10° 20:18:34 10° 297° (WNW) 1,844 ? 35.6°
Maximum altitude 20:21:11 16° 335° (NNW) 1,503 ? 35.2°
Drops below altitude 10° 20:23:47 10° 14° (NNE) 1,839 ? 34.8°
Sets 20:26:48 0° 37° (NE) 2,733 ? 34.3°
